This is the latest recevied weather packets stored in our database for station/object IW4ENL-7. If no packets are shown the sender has not sent any weather packets the latest 1 day(s).
| Time | Temp. | Humidity | Pressure | Rain* | Wind** | Luminosity | Snow |
|---|---|---|---|---|---|---|---|
| 1777964484 | 9.44° C | 58% | 961 hPa | - | 0.45 m/s, 221° | - | - |
| 1777964301 | 9.44° C | 58% | 961 hPa | - | 0.89 m/s, 347° | - | - |
| 1777963752 | 10° C | 58% | 961 hPa | - | 1.34 m/s, 315° | - | - |
| 1777963569 | 10° C | 57% | 961 hPa | - | 0.89 m/s, 307° | - | - |
| 1777963386 | 10° C | 57% | 961 hPa | - | 0 m/s | - | - |
| 1777963021 | 10° C | 57% | 961 hPa | - | 0 m/s | - | - |
| 1777962838 | 10° C | 58% | 961 hPa | - | 0 m/s | - | - |
| 1777962655 | 9.44° C | 58% | 961 hPa | - | 0.45 m/s, 112° | - | - |
| 1777962472 | 9.44° C | 61% | 961 hPa | - | 1.34 m/s, 135° | - | - |
| 1777962289 | 9.44° C | 59% | 961 hPa | - | 1.79 m/s, 103° | - | - |
| 1777962106 | 9.44° C | 58% | 961 hPa | - | 1.79 m/s, 94° | - | - |
| 1777961558 | 9.44° C | 57% | 961 hPa | - | 0.45 m/s, 68° | - | - |
| 1777961192 | 9.44° C | 57% | 961 hPa | - | 0.45 m/s, 135° | - | - |
| 1777961009 | 10° C | 58% | 961 hPa | - | 0.89 m/s, 139° | - | - |
| 1777960826 | 10° C | 58% | 961 hPa | - | 0.89 m/s, 36° | - | - |
| 1777960643 | 10° C | 58% | 961 hPa | - | 0.45 m/s, 94° | - | - |
| 1777960460 | 10° C | 58% | 961 hPa | - | 0.45 m/s, 94° | - | - |
| 1777960277 | 10° C | 58% | 961 hPa | - | 1.79 m/s, 203° | - | - |
| 1777959911 | 10° C | 58% | 961 hPa | - | 1.34 m/s, 225° | - | - |
| 1777959728 | 10.56° C | 59% | 961 hPa | - | 0.89 m/s, 225° | - | - |
| 1777959363 | 10.56° C | 57% | 961 hPa | - | 2.24 m/s, 253° | - | - |
| 1777959180 | 10.56° C | 57% | 961 hPa | - | 1.79 m/s, 234° | - | - |
| 1777958997 | 10.56° C | 57% | 961 hPa | - | 0.89 m/s, 230° | - | - |
| 1777958814 | 10.56° C | 57% | 961 hPa | - | 0 m/s | - | - |
| 1777958631 | 10.56° C | 58% | 961 hPa | - | 0 m/s | - | - |
* Rain since midnight (hover to see other rain measurements)
** Current wind speed in m/s (hover to see current wind gust speed)